Regional Weather Roundup
Issued by NWS

Home | Current Version | Previous Version | Text Only | Print | Product List | Glossary Off
Versions: 1 2 3 4 5 6 7 8 9 10 11 12 13 14 15 16 17 18 19 20 21 22 23 24 25 26 27 28 29 30 31 32 33 34 35 36 37 38 39 40 41 42 43 44 45 46 47 48 49 50

000
ASUS44 KMEG 300100
RWRTN
TENNESSEE HOURLY STATE WEATHER ROUNDUP
NATIONAL WEATHER SERVICE MEMPHIS TN
800 PM CDT SAT APR 29 2017

TNZ002-004-019-021-049-052-054-088>092-300200-
WEST TENNESSEE

CITY           SKY/WX    TMP DP  RH WIND       PRES   REMARKS
MEMPHIS INTL   MOCLDY    83  68  60 S18G25    29.82R
NWS MEMPHIS      N/A     82 N/A N/A MISG        N/A
JACKSON        CLEAR     81  68  64 VRB7G18   29.85S
DYERSBURG      PTCLDY    80  68  66 SE9       29.83F
$$

TNZ008-025-027-028-033-062-065-066-300200-
NORTH MIDDLE TENNESSEE

CITY           SKY/WX    TMP DP  RH WIND       PRES   REMARKS
NASHVILLE      PTCLDY    80  65  59 S12       29.95R
CLARKSVILLE    CLEAR     79  64  60 S8        29.91R
SMYRNA         CLEAR     79  67  66 S6        29.96R
CROSSVILLE     TSTM      73  63  70 VRB6G22   30.08R
$$

TNZ061-075-076-078-094-096-097-300200-
SOUTH MIDDLE TENNESSEE

CITY           SKY/WX    TMP DP  RH WIND       PRES   REMARKS
TULLAHOMA      MOCLDY    79  63  57 S7        30.02R
WINCHESTER     CLEAR     77  66  69 SE7       30.02R
MCMINNVILLE    MOCLDY    72  64  78 VRB6      30.02R
COLUMBIA       CLEAR     79  70  73 S9        29.94R
SHELBYVILLE    CLEAR     79  64  61 S6        29.99R
$$

TNZ017-018-042-046-047-300200-
NORTHEAST TENNESSEE

CITY           SKY/WX    TMP DP  RH WIND       PRES   REMARKS
TRI CITIES     PTCLDY    72  68  87 N5        30.07S
$$

TNZ012-013-036-069-073-074-300200-
CENTRAL EAST TENNESSEE

CITY           SKY/WX    TMP DP  RH WIND       PRES   REMARKS
KNOXVILLE      CLOUDY    80  59  48 SW9       30.03R
OAK RIDGE      CLOUDY    81  64  56 CALM      30.04R
GATLINBURG     CLEAR     81  57  44 SW3       30.04R
$$

TNZ083-085-099-300200-
SOUTHEAST TENNESSEE

CITY           SKY/WX    TMP DP  RH WIND       PRES   REMARKS
CHATTANOOGA    PTCLDY    74  71  91 NE6       30.04R
$$

SKY/WX REPORTED AS FAIR MEANS FEW OR NO CLOUDS BELOW
12 THOUSAND FEET.




USA.gov is the U.S. government's official web portal to all federal, state and local government web resources and services.